Location: Unspecified
(0.0000°N, 0.0000°E)
Time: 23:36:54
(UTC+00:00)

MIDAS 4 DEB - Pass Details

Date: 20 December 2025
Orbit: 3362 x 3904 km, 95.8° (Epoch: 13 January)

Event Time Altitude Azimuth Distance (km) Brightness Sun altitude
Rises 19:21:27 0° 349° (NNW) 7,364 ? -19.1°
Reaches altitude 10° 19:26:16 10° 340° (NNW) 6,328 ? -20.2°
Maximum altitude 19:40:18 33° 283° (WNW) 4,721 ? -23.4°
Drops below altitude 10° 19:55:01 10° 224° (SW) 6,527 ? -26.7°
Sets 20:00:20 0° 214° (SW) 7,626 ? -27.9°
